Location: Unspecified
(0.0000°N, 0.0000°E)
Time: 12:03:42
(UTC+00:00)

COSMOS 2251 DEB - Visible Passes

Search period start: 11 February 2026 00:00
Search period end: 21 February 2026 00:00
Orbit: 737 x 791 km, 74.0° (Epoch: 10 February)

Date Brightness Start Highest point End Pass type
(mag) Time Alt. Az. Time Alt. Az. Time Alt. Az.
11 Feb ? 20:01:34 10° NW 20:05:26 21° WSW 20:09:16 10° SSW visible
12 Feb ? 19:22:14 10° NNW 19:27:12 44° WSW 19:32:07 10° S visible
13 Feb ? 18:43:44 10° N 18:48:59 85° ENE 18:54:10 10° SSE visible
14 Feb ? 05:36:18 10° SE 05:38:52 14° ESE 05:41:26 10° ENE visible
14 Feb ? 19:50:52 10° W 19:52:25 11° WSW 19:53:57 10° WSW visible
15 Feb ? 19:09:58 10° NW 19:14:10 25° WSW 19:18:21 10° SSW visible
16 Feb ? 18:30:52 10° NNW 18:35:56 53° WSW 18:40:58 10° S visible
17 Feb ? 05:21:38 10° SSE 05:25:50 25° ESE 05:30:04 10° NE visible
18 Feb ? 04:46:01 10° ESE 04:47:35 11° ESE 04:49:09 10° E visible
18 Feb ? 18:58:34 10° WNW 19:01:07 14° WSW 19:03:40 10° SW visible
19 Feb ? 05:45:47 10° SSW 05:51:00 86° WNW 05:56:17 10° N visible
20 Feb ? 05:07:48 10° S 05:12:46 44° ESE 05:17:45 10° NNE visible
